sat.trackr.live / text

‹ back to catalog

STARLINK-30108

NORAD 56299 · 2023-056P

PAYLOAD ACTIVE UNKNOWN

§ Identity

Operator
Country
US
Launch date
2023-04-19
Launch site
AFETR
Launch vehicle
Mass (kg)
RCS (m²)

Purposes: comms

External: N2YO · Heavens-Above · Gunter

§ Orbital elements

Epoch: 2026-05-25T05:26:31.250976Z

Period
94.27 min
Inclination
43.0008°
Eccentricity
0.0000776
Mean motion
15.27585586 rev/d
Perigee alt
482.5 km
Apogee alt
483.6 km
Semi-major
6,861.2 km
B*
-7.2948e-5
RAAN
125.4664°
Arg perigee
291.6153°
Mean anomaly
68.4616°
Rev number
17,193

§ Raw data

STARLINK-301081 56299U 23056P   26145.22675059 -.00002269  00000+0 -72948-4 0  99952 56299  43.0008 125.4664 0000776 291.6153  68.4616 15.27585586171937

JSON: /api/v1/satellites/56299 · /tle

For live sub-satellite position, see the globe view (requires WebGL).

§ Visibility from observer

Set your observer location to see the next 7 days of passes ≥ 10°. The values pass through the URL so the page stays shareable.

No JS? Fill the form by hand. The geolocation button needs JavaScript.